Hourly Data Report for June 26, 2001

SHERBROOKE A
QUEBEC

45°26'00.000" N
71°41'00.000" W
241.40 m
7028124
71610
YSC

Download Data

Hourly Data (June 2001)
Hourly Data Report for June 26, 2001
TIME
LST
Temp Definition
°C
Dew Point Definition
°C
Rel Hum Definition
%
Precip. Amount Definition
mm

Wind Dir Definition
10's deg

Wind Spd Definition
km/h
Visibility Definition
km
Stn Press Definition
kPa
Hmdx Definition


Wind Chill Definition


Weather Definition


00:00 15.1 14.4 96     0 11.3 99.54      
01:00 14.1 13.7 97   12 6 4.0 99.53      
02:00 13.9 13.7 99   6 4 5.6 99.56      
03:00 13.9 13.5 97   11 4 8.0 99.60      
04:00 12.8 12.5 98   11 4 3.2 99.65      
05:00 14.3 14.0 98   10 4 6.4 99.69      
06:00 17.8 15.9 89     0 15.0 99.71      
07:00 20.7 16.9 79     0 24.1 99.78 26   Mainly Clear
08:00 22.7 16.6 68   20 7 24.1 99.79 28   Mostly Cloudy
09:00 24.3 17.2 65   25 11 24.1 99.80 30   Mainly Clear
10:00 26.6 17.3 57   24 13 24.1 99.75 32   Mainly Clear
11:00 27.5 17.4 54   27 17 24.1 99.70 33   Mainly Clear
12:00 28.1 16.4 49   27 24 24.1 99.66 33   Mainly Clear
13:00 28.8 15.8 45   25 17 24.1 99.58 33   Mainly Clear
14:00 29.0 16.3 46   26 19 24.1 99.53 34   Mainly Clear
15:00 28.9 16.6 47   27 15 24.1 99.52 34   Mainly Clear
16:00 28.6 16.5 48   29 17 24.1 99.49 34   Mainly Clear
17:00 27.9 15.9 48   27 17 15.0 99.47 32    
18:00 27.0 15.5 49   26 13 15.0 99.46 31    
19:00 24.7 16.3 60   23 6 15.0 99.46 30    
20:00 20.5 15.8 74   23 7 15.0 99.48 25    
21:00 21.1 15.2 69   21 7 15.0 99.50 25    
22:00 20.9 15.0 69   20 7 15.0 99.46 25    
23:00 19.5 15.0 75   22 7 15.0 99.46      

Notes on Data Quality.

Legend

  • E = Estimated
  • M = Missing
  • NA = Not Available*
  • [empty] = Indicates an unobserved value
Date modified: